Home > Weather > Tempe > Past weeks

Flag for U.S.A. Weather for the Past 2 Weeks in Tempe, Arizona, U.S.A.

Now
75 °F

Passing clouds.


Feels Like: 75 °F
Forecast: 43 / 78 °F
Wind: 5 mph from Northeast

Location: Phoenix Sky Harbor International Airport

Current Time: Feb 7, 2016 at 3:21:02 PM

Latest Report: Feb 7, 2016 at 1:51 PM


Visibility: 10 mi

Pressure: 30.09 "Hg

Humidity: 11%

Dew point: 17 °F

Location of TempeLocation

Historic Weather in Tempe — Graph

°F

Tempe Temperature Yesterday

Maximum temperature yesterday: 74 °F (at 4:51 PM)
Minimum temperature yesterday: 44 °F (at 6:51 AM)
Average temperature yesterday: 59 °F

High & Low Weather Summary for the Past Weeks

 TemperatureHumidityPressure
High75 °F (Feb 7, 1:51 PM)83% (Jan 31, 10:51 PM)30.36 "Hg (Jan 31, 10:51 PM)
Low36 °F (Feb 3, 6:51 AM)8% (Feb 6, 3:51 PM)29.53 "Hg (Jan 31, 9:51 PM)
Average56 °F32%30.07 "Hg
* Reported Jan 23 1:51 PM — Feb 7 1:51 PM, Tempe, Weather by CustomWeather, © 2016

Note: Actual official high and low records may vary slightly from our data, if they occured in-between our weather recording intervals... More about our weather records

Advertising

Tempe Weather History for the Previous 24 Hours

 ConditionsComfort  
Time TempWeatherWind HumidityBarometerVisibility
1:51 PM
Sun, Feb 7
75 °FPassing clouds.5 mph11%30.09 "Hg10 mi
12:51 PM73 °FPassing clouds.8 mph12%30.12 "Hg10 mi
11:51 AM69 °FPassing clouds.6 mph14%30.16 "Hg10 mi
10:51 AM65 °FPassing clouds.5 mph18%30.19 "Hg10 mi
9:51 AM62 °FPassing clouds.9 mph18%30.18 "Hg10 mi
8:51 AM59 °FPassing clouds.No wind23%30.17 "Hg10 mi
7:51 AM53 °FPassing clouds.3 mph27%30.16 "Hg10 mi
6:51 AM52 °FClear.No wind28%30.13 "Hg10 mi
5:51 AM49 °FClear.No wind41%30.15 "Hg10 mi
4:51 AM48 °FClear.No wind44%30.15 "Hg10 mi
3:51 AM49 °FClear.3 mph41%30.15 "Hg10 mi
2:51 AM52 °FClear.3 mph35%30.16 "Hg10 mi
1:51 AM51 °FClear.6 mph39%30.16 "Hg10 mi
12:51 AM56 °FClear.No wind28%30.16 "Hg10 mi
11:51 PM
Sat, Feb 6
54 °FClear.No wind33%30.16 "Hg10 mi
10:51 PM55 °FClear.No wind33%30.15 "Hg10 mi
9:51 PM59 °FClear.No wind25%30.16 "Hg10 mi
8:51 PM62 °FClear.No wind19%30.16 "Hg10 mi
7:51 PM61 °FPassing clouds.5 mph22%30.16 "Hg10 mi
6:51 PM70 °FPassing clouds.6 mph10%30.14 "Hg10 mi
5:51 PM73 °FPassing clouds.3 mph9%30.13 "Hg10 mi
4:51 PM74 °FPassing clouds.3 mph8%30.13 "Hg10 mi
3:51 PM73 °FPassing clouds.6 mph8%30.14 "Hg10 mi
Weather by CustomWeather, © 2016

See weather overviewHow to use our weather pages